LQSat
1 40958U 15057A 15302.84547256 .00000444 00000-0 77379-4 0 9995
2 40958 98.0395 15.4993 0018281 170.5289 189.6235 14.72727589 3330
AO-85
1 40967U 15058D 15302.30036689 .00001904 00000-0 21334-3 0 00240
2 40967 064.7795 228.7545 0217878 275.5719 236.2101 14.74335309002925
/EX
1
0
IO-86 (LAPAN-A2) has been identified as NORAD CAT ID 40931 by AMSAT ID
(AMSAT-Indonesia).
LQSAT has been identified as NORAD CAT ID 40958 by Nico Janssen (PA0DLO).
Thanks Nico.
AO-85 (formally Fox-1A) remains as NORAD CAT ID 40967 per SpaceTrack.
1
0
SB KEPS @ AMSAT $ORB15296.N
2Line Orbital Elements 15296.AMSAT
HR AMSAT ORBITAL ELEMENTS FOR AMATEUR SATELLITES IN NASA FORMAT
FROM WA5QGD FORT WORTH,TX October 23, 2015
BID: ORB15296.N
DECODE 2-LINE ELSETS WITH THE FOLLOWING KEY:
1 AAAAAU 00 0 0 BBBBB.BBBBBBBB .CCCCCCCC 00000-0 00000-0 0 DDDZ
2 AAAAA EEE.EEEE FFF.FFFF GGGGGGG HHH.HHHH III.IIII JJ.JJJJJJJJKKKKKZ
KEY: A-CATALOGNUM B-EPOCHTIME C-DECAY D-ELSETNUM E-INCLINATION F-RAAN
G-ECCENTRICITY H-ARGPERIGEE I-MNANOM J-MNMOTION K-ORBITNUM Z-CHECKSUM
TO ALL RADIO AMATEURS BT
AO-07
1 07530U 74089B 15295.92523869 -.00000014 +00000-0 +18663-3 0 9992
2 07530 101.5390 267.8408 0012382 054.8230 007.1734 12.53617265873030
FO-29
1 24278U 96046B 15296.15416822 -.00000003 00000-0 30003-4 0 9994
2 24278 98.5592 247.7399 0351403 99.0945 331.3468 13.53058067947338
SO-33
1 25509U 98061B 15296.25158755 .00000445 00000-0 76033-4 0 9992
2 25509 31.4315 245.3233 0347470 116.2969 247.3778 14.30083274887767
RS-22
1 27939U 03042A 15296.45221358 .00000943 00000-0 17951-3 0 9994
2 27939 97.8577 92.7703 0012917 346.2117 13.8756 14.66185873644987
HO-68
1 36122U 09072B 15296.08500479 -.00000059 00000-0 -43517-4 0 9998
2 36122 100.1795 336.2450 0007640 179.3042 180.8105 13.16329960281289
AO-73
1 39444U 13066AE 15296.11116382 .00001852 00000-0 24079-3 0 9997
2 39444 97.7162 354.1013 0060907 78.9456 281.8598 14.80546574102341
EO-79
1 40025U 14033R 15296.31143558 .00001874 00000-0 21286-3 0 9997
2 40025 97.9398 196.6874 0014014 120.8601 239.3995 14.87451941 72831
XW-2A
1 40903U 15049E 15296.53719098 .00073680 00000-0 26525-2 0 9996
2 40903 97.4653 304.1477 0038991 237.2157 238.7467 15.27574073 5097
XW-2C
1 40906U 15049H 15296.44498256 .00004247 00000-0 24818-3 0 9996
2 40906 97.4569 303.8352 0016872 133.3687 4.5821 15.12302541 5054
LILACSAT-2
1 40908U 15049K 15296.45598256 .00002376 00000-0 14265-3 0 9996
2 40908 97.4629 303.8481 0017740 126.7623 7.5947 15.11736202 5053
XW-2E
1 40909U 15049L 15296.43333247 .00006432 00000-0 37063-3 0 9990
2 40909 97.4568 303.8388 0016317 136.2752 331.1072 15.12625796 5051
UO-11
1 14781U 84021B 15296.20835829 .00000808 00000-0 10696-3 0 9997
2 14781 97.7861 350.0372 0008990 22.2285 337.9317 14.82543666700991
AO-16
1 20439U 90005D 15295.88259940 +.00000135 +00000-0 +65598-4 0 9995
2 20439 098.5497 230.2508 0011492 138.7199 263.1787 14.32577801344774
LO-19
1 20442U 90005G 15296.35207748 .00000149 00000-0 70633-4 0 9992
2 20442 98.5204 229.8814 0012667 125.9424 234.2937 14.32767966345299
AO-27
1 22825U 93061C 15295.90348855 +.00000122 +00000-0 +64990-4 0 9999
2 22825 098.7244 246.1383 0007483 299.3274 092.4544 14.29910718150916
IO-26
1 22826U 93061D 15295.92547489 +.00000133 +00000-0 +68763-4 0 9990
2 22826 098.7187 246.3122 0007928 289.6774 070.3553 14.30230412151090
GO-32
1 25397U 98043D 15296.09681892 .00000070 00000-0 49457-4 0 9996
2 25397 98.5351 242.6167 0001006 14.4117 48.1157 14.23565002897998
NO-44
1 26931U 01043C 15296.39293135 .00000125 00000-0 80054-4 0 9996
2 26931 67.0517 206.3734 0006491 277.0617 82.9746 14.30351932734139
SO-50
1 27607U 02058C 15296.12720625 .00000630 00000-0 10960-3 0 9993
2 27607 64.5544 168.0935 0082869 263.8640 95.3016 14.74886741690151
CO-55
1 27844U 03031E 15295.83663313 +.00000257 +00000-0 +13656-3 0 9995
2 27844 098.6962 302.5500 0008713 295.0759 064.9514 14.21859693638530
CO-57
1 27848U 03031J 15295.97116808 +.00000230 +00000-0 +12496-3 0 9998
2 27848 098.7058 302.6560 0008694 303.1890 120.2836 14.21498972638467
AO-51
1 28375U 04025K 15295.87401868 +.00000266 +00000-0 +91839-4 0 9998
2 28375 098.3033 232.7125 0081741 304.5521 054.7973 14.41709035594823
CP3
1 31129U 07012N 15295.89329705 +.00001139 +00000-0 +25410-3 0 9990
2 31129 097.9977 256.2361 0094976 276.0697 140.7314 14.56000230451666
CO-65
1 32785U 08021C 15296.16874756 .00001514 00000-0 17407-3 0 9996
2 32785 97.6347 334.9353 0013530 10.6709 61.8958 14.87132634405250
PRISM
1 33493U 09002B 15296.52099012 .00003522 00000-0 33679-3 0 9997
2 33493 98.2399 140.1801 0014976 269.3931 90.5641 14.93865380365735
SOHLA-1
1 33496U 09002E 15296.42226286 .00000554 00000-0 97652-4 0 9998
2 33496 98.2299 65.5336 0007509 112.9940 288.5940 14.71449787362033
TISAT-1
1 36799U 10035E 15296.24400883 .00004019 00000-0 43278-3 0 9996
2 36799 98.0209 38.1838 0013715 142.9891 247.4203 14.88979289286010
STUDSAT
1 36801U 10035G 15295.93760032 +.00028892 +00000-0 +15026-2 0 9994
2 36801 098.0730 062.9289 0006017 069.6412 290.5465 15.16000580287177
ALMASAT-1
1 38078U 12006B 15295.95072966 +.00038871 +34459-5 +64042-3 0 9997
2 38078 069.4504 276.6769 0445958 079.5503 285.5518 14.86281051193972
CUBEBUG-1
1 39153U 13018D 15296.46162136 .00001667 00000-0 22976-3 0 9995
2 39153 98.0123 20.4398 0016904 194.4604 165.6126 14.79468910134442
ESTCUBE-1
1 39161U 13021C 15296.39939621 .00000977 00000-0 16601-3 0 9992
2 39161 98.0656 18.1761 0008458 267.7800 92.2446 14.71348844132091
DUCHIFAT-1
1 40021U 14033M 15296.45641524 .00003118 00000-0 34116-3 0 9993
2 40021 97.9421 197.3915 0014676 120.0402 240.2272 14.88479115 72881
NANOSATCBR1
1 40024U 14033Q 15296.28319092 .00003011 00000-0 33364-3 0 9995
2 40024 97.9402 196.8872 0013890 119.9932 240.2665 14.88004119 72841
DTUSAT-2
1 40030U 14033W 15296.50350390 .00001749 00000-0 20080-3 0 9990
2 40030 97.9384 196.5226 0013572 114.0819 246.1818 14.87081372 72844
ANTELSAT
1 40034U 14033AA 15296.57885190 .00001340 00000-0 21059-3 0 9996
2 40034 97.9255 185.6955 0061126 68.2119 292.5601 14.72953693 72195
MET-2/21
1 22782U 93055A 15295.92820623 +.00000052 +00000-0 +34057-4 0 9997
2 22782 082.5475 142.3180 0021757 325.5909 149.9192 13.83777213117992
OKEAN-4
1 23317U 94066A 15295.96068951 +.00001034 +00000-0 +11291-3 0 9992
2 23317 082.5369 325.3954 0018456 265.8020 140.6011 14.86866086136296
NOAA-14
1 23455U 94089A 15296.41145322 .00000021 00000-0 33506-4 0 9998
2 23455 98.7448 15.1782 0010497 76.9764 345.3768 14.14055800 73650
NOAA-15
1 25338U 98030A 15296.52133118 .00000136 00000-0 76205-4 0 9992
2 25338 98.7785 295.2833 0011092 150.9626 209.2172 14.25669581907120
RESURS
1 25394U 98043A 15295.90530772 +.00000026 +00000-0 +29339-4 0 9990
2 25394 098.4815 246.4748 0000222 257.1353 134.6709 14.24458797898441
FENGYUN1
1 25730U 99025A 15295.86748727 +.00000750 +00000-0 +42007-3 0 9991
2 25730 098.9537 260.7676 0020071 135.4403 277.4696 14.13665693847053
OKEAN-0
1 25860U 99039A 15295.95809502 .00000729 00000-0 11308-3 0 9995
2 25860 98.1115 264.3421 0000864 81.9134 328.9777 14.76165794874837
NOAA-16
1 26536U 00055A 15296.53603499 .00000030 00000-0 40207-4 0 9994
2 26536 98.9292 2.3051 0009828 225.6937 134.3430 14.13111367777787
NOAA-17
1 27453U 02032A 15296.51274584 .00000080 00000-0 51732-4 0 9997
2 27453 98.3543 276.2423 0011927 160.8883 199.2746 14.24904036692935
